Home > Time Zones > World Clock > Weather > China > Wuhan > Past weeks

Flag for China Weather past 2 weeks in Wuhan, China

Now
64 °F

Fog.


Feels Like: 64 °F
Forecast: 62 / 69 °F
Wind: 10 mph from East

Location: Wuhan Airport


UV Index: 0 (Low)

Visibility: 2 mi


Pressure: 29.92 "Hg

Humidity: 88%

Dew point: 61 °F

Location of WuhanLocation

Historic Weather in Wuhan

°F

Wuhan temperature yesterday

Maximum temperature yesterday: 70 °F (at 2:00 PM)
Minimum temperature yesterday: 57 °F (at 6:00 AM)
Average temperature yesterday: 63 °F

Past Weeks' High & Low Weather Summary

 TemperatureHumidityPressure
High82 °F (Apr 9, 3:00 PM)100% (Apr 11, 6:00 AM)30.12 "Hg (Apr 11, 6:00 AM)
Low55 °F (Apr 12, 6:00 AM)39% (Apr 9, 6:00 PM)29.74 "Hg (Apr 11, 4:00 PM)
Average63 °F84%29.94 "Hg
* Reported Apr 9 9:00 AM — Apr 24 9:00 AM, Wuhan, Weather by CustomWeather, © 2014

Note: Actual official high and low records may vary slightly from our data, if they occured in-between our weather recording intervals... More about our weather records

Advertising

Historic Weather Conditions — Data for Previous 24 hours

 ConditionsComfort  
Time TempWeatherWind HumidityBarometerVisibility
9:00 AM
Apr 24
64 °FFog.10 mph88%29.92 "Hg2 mi
8:00 AM64 °FFog.8 mph88%29.92 "Hg2 mi
7:00 AM63 °FFog.3 mph94%29.89 "Hg1 mi
6:00 AM61 °FFog.3 mph100%29.89 "Hg1 mi
5:00 AM63 °FFog.3 mph88%29.86 "Hg2 mi
4:00 AM61 °FFog.3 mph94%29.86 "Hg2 mi
3:00 AM63 °FFog.3 mph94%29.89 "Hg2 mi
2:00 AM63 °FFog.1 mph94%29.89 "Hg2 mi
1:00 AM63 °FFog.3 mph94%29.92 "Hg2 mi
12:00 AM63 °FFog.1 mph94%29.92 "Hg2 mi
11:00 PM
Apr 23
64 °FFog.3 mph83%29.92 "Hg2 mi
10:00 PM64 °FFog.3 mph83%29.92 "Hg2 mi
9:00 PM64 °FFog.3 mph83%29.92 "Hg2 mi
8:00 PM64 °FFog.6 mph83%29.89 "Hg2 mi
7:00 PM64 °FFog.6 mph88%29.89 "Hg2 mi
6:00 PM64 °FFog.6 mph83%29.86 "Hg2 mi
5:00 PM64 °FLight rain. Fog.6 mph83%29.86 "Hg3 mi
4:00 PM66 °FLight rain. Haze.6 mph73%29.86 "Hg2 mi
3:00 PM68 °FScattered clouds.3 mph69%29.89 "Hg4 mi
2:00 PM70 °FPassing clouds.6 mph64%29.89 "Hg4 mi
1:00 PM68 °FHaze.8 mph69%29.92 "Hg2 mi
12:00 PM68 °FHaze.6 mph69%29.95 "Hg2 mi
11:00 AM66 °FHaze.8 mph73%29.98 "Hg3 mi
10:00 AM64 °FHaze.8 mph73%29.98 "Hg2 mi
Weather by CustomWeather, © 2014

See weather overview